Weather History for Beaver Island, MI

Change the Weather History Date:

Sunday, May 19, 2013

  Actual Average Record
Temperature  
Mean Temperature 65 °F -  
Max Temperature 76 °F 63 °F 82 °F (2012)
Min Temperature 54 °F 41 °F 28 °F (2002)
Growing Degree Days 15 (Base 50)    
Moisture  
Dew Point 49 °F    
Average Humidity 60    
Maximum Humidity 75    
Minimum Humidity 49    
Precipitation  
Precipitation 0.00 in - - ()
Sea Level Pressure  
Sea Level Pressure 29.95 in    
Wind  
Wind Speed 6 mph (SE)    
Max Wind Speed 12 mph    
Max Gust Speed 20 mph    
Visibility 10 miles    
Events Rain    
Averages and records for this station are not official NWS values.
T = Trace of Precipitation, MM = Missing Value Source: NWS Daily Summary

Daily Weather History Graph

Daily Weather History Graph

Search for Another Location

Airport:

Trip Planner

Search our weather history database for the weather conditions in past years. The results will help you decide how hot, cold, wet, or windy it might be!

Date:

Astronomy

May. 19, 2013 Rise Set
Actual Time 6:06 AM EDT 9:11 PM EDT
Civil Twilight 5:31 AM EDT 9:47 PM EDT
Nautical Twilight 4:45 AM EDT 10:33 PM EDT
Astronomical Twilight 3:50 AM EDT 11:28 PM EDT
Moon 2:57 PM EDT (5/19) 2:48 AM EDT (5/19)
Length of Visible Light 16h 16m
Length of Day
15h 05m
Waxing Gibbous, 65% of the Moon is Illuminated
May 19
Waxing Gibbous
May 25
Full
May 31
Last Quarter
Jun 8
New
Jun 16
First Quarter

Hourly Weather History & Observations

Time (EDT) Temp. Dew Point Humidity Pressure Visibility Wind Dir Wind Speed Gust Speed Precip Events Conditions
12:15 AM 54.5 °F 45.0 °F 70% 30.01 in 10.0 mi ESE 9.2 mph - N/A Rain Light Rain
12:35 AM 54.7 °F 44.1 °F 67% 30.01 in 10.0 mi ESE 9.2 mph - N/A   Overcast
12:54 AM 55.6 °F 44.4 °F 66% 30.01 in 10.0 mi ESE 8.1 mph - N/A   Overcast
1:15 AM 55.8 °F 44.2 °F 65% 30.00 in 10.0 mi ESE 8.1 mph - N/A   Overcast
1:35 AM 55.8 °F 43.3 °F 63% 30.00 in 10.0 mi ESE 8.1 mph - N/A   Overcast
1:54 AM 55.9 °F 43.2 °F 62% 29.99 in 10.0 mi ESE 6.9 mph - N/A   Overcast
2:15 AM 56.7 °F 43.2 °F 61% 29.98 in 10.0 mi ESE 6.9 mph - N/A   Overcast
2:35 AM 57.2 °F 43.0 °F 59% 29.98 in 10.0 mi SE 8.1 mph - N/A   Overcast
2:55 AM 57.0 °F 42.8 °F 59% 29.98 in 10.0 mi ESE 5.8 mph - N/A   Overcast
3:15 AM 56.5 °F 42.6 °F 60% 29.98 in 10.0 mi ESE 3.5 mph - N/A   Mostly Cloudy
3:35 AM 55.8 °F 43.0 °F 62% 29.98 in 10.0 mi ESE 3.5 mph - N/A   Scattered Clouds
3:55 AM 55.8 °F 43.3 °F 63% 29.98 in 10.0 mi Calm Calm - N/A   Clear
4:15 AM 55.8 °F 43.7 °F 64% 29.97 in 10.0 mi SE 3.5 mph - N/A   Clear
4:34 AM 57.0 °F 43.2 °F 60% 29.98 in 10.0 mi SE 4.6 mph - N/A   Clear
4:55 AM 59.0 °F 43.0 °F 55% 29.98 in 10.0 mi SSE 5.8 mph - N/A   Clear
5:15 AM 59.0 °F 42.8 °F 55% 29.97 in 10.0 mi SSE 8.1 mph - N/A   Clear
5:34 AM 58.5 °F 42.8 °F 56% 29.98 in 10.0 mi SSE 8.1 mph - N/A   Clear
5:55 AM 58.3 °F 43.2 °F 57% 29.97 in 10.0 mi SSE 8.1 mph - N/A   Scattered Clouds
6:15 AM 58.3 °F 43.7 °F 58% 29.98 in 10.0 mi SE 4.6 mph - N/A   Scattered Clouds
6:35 AM 57.9 °F 43.5 °F 59% 29.98 in 10.0 mi SE 6.9 mph - N/A   Clear
6:55 AM 57.6 °F 43.7 °F 60% 29.99 in 10.0 mi SSE 3.5 mph - N/A   Scattered Clouds
7:15 AM 58.3 °F 44.2 °F 60% 29.99 in 10.0 mi SSE 4.6 mph - N/A   Clear
7:35 AM 58.3 °F 44.4 °F 60% 30.00 in 10.0 mi SSW 3.5 mph - N/A   Clear
8:14 AM 59.5 °F 45.9 °F 61% 29.99 in 10.0 mi Calm Calm - N/A   Mostly Cloudy
8:35 AM 60.4 °F 46.8 °F 61% 29.98 in 10.0 mi Calm Calm - N/A   Scattered Clouds
8:55 AM 61.7 °F 47.5 °F 60% 29.98 in 10.0 mi South 3.5 mph - N/A   Clear
9:14 AM 63.7 °F 48.6 °F 58% 29.97 in 10.0 mi Calm Calm - N/A   Clear
9:35 AM 63.1 °F 48.4 °F 59% 29.98 in 10.0 mi Calm Calm - N/A   Clear
9:55 AM 67.3 °F 50.5 °F 55% 29.98 in 10.0 mi SSW 5.8 mph - N/A   Clear
10:15 AM 68.9 °F 51.8 °F 54% 29.97 in 10.0 mi SSW 6.9 mph - N/A   Clear
10:54 AM 68.5 °F 52.5 °F 57% 29.98 in 10.0 mi WSW 11.5 mph 19.6 mph N/A   Mostly Cloudy
11:15 AM 67.5 °F 51.6 °F 57% 29.98 in 10.0 mi WSW 9.2 mph 17.3 mph N/A   Overcast
11:34 AM 66.4 °F 50.4 °F 56% 29.98 in 10.0 mi West 6.9 mph - N/A   Overcast
11:55 AM 66.7 °F 50.0 °F 55% 29.98 in 10.0 mi West 6.9 mph - N/A   Overcast
12:15 PM 66.9 °F 50.9 °F 56% 29.98 in 10.0 mi WSW 4.6 mph - N/A   Overcast
12:35 PM 68.4 °F 52.2 °F 56% 29.98 in 10.0 mi SW 5.8 mph - N/A   Overcast
12:55 PM 69.1 °F 52.2 °F 55% 29.98 in 10.0 mi WSW 8.1 mph - N/A   Overcast
1:15 PM 70.7 °F 52.7 °F 53% 29.98 in 10.0 mi WSW 11.5 mph - N/A   Overcast
1:35 PM 68.0 °F 50.7 °F 54% 29.98 in 10.0 mi WSW 11.5 mph 18.4 mph N/A   Mostly Cloudy
1:55 PM 68.9 °F 50.5 °F 52% 29.97 in 10.0 mi SW 11.5 mph 16.1 mph N/A   Scattered Clouds
2:14 PM 70.3 °F 52.2 °F 52% 29.97 in 10.0 mi SW 10.4 mph - N/A   Clear
2:35 PM 70.9 °F 52.5 °F 52% 29.96 in 10.0 mi SW 5.8 mph - N/A   Clear
3:14 PM 75.0 °F 57.7 °F 55% 29.93 in 10.0 mi SSE 4.6 mph - N/A   Clear
3:35 PM 75.7 °F 55.6 °F 49% 29.91 in 10.0 mi East 8.1 mph - N/A   Clear
4:14 PM 74.5 °F 55.4 °F 51% 29.90 in 10.0 mi ENE 6.9 mph - N/A   Clear
4:35 PM 73.0 °F 55.4 °F 54% 29.88 in 10.0 mi East 9.2 mph - N/A   Clear
4:55 PM 73.6 °F 55.4 °F 53% 29.87 in 10.0 mi East 10.4 mph - N/A   Clear
5:15 PM 70.9 °F 55.2 °F 58% 29.87 in 10.0 mi East 8.1 mph - N/A   Clear
5:35 PM 71.1 °F 55.4 °F 58% 29.88 in 10.0 mi ESE 6.9 mph - N/A   Clear
5:54 PM 72.5 °F 56.5 °F 57% 29.89 in 10.0 mi East 3.5 mph - N/A   Clear
6:15 PM 73.6 °F 57.2 °F 56% 29.90 in 10.0 mi East 5.8 mph - N/A   Clear
6:35 PM 73.6 °F 57.6 °F 57% 29.89 in 10.0 mi Calm Calm - N/A   Clear
6:54 PM 76.1 °F 57.7 °F 53% 29.89 in 10.0 mi WSW 3.5 mph - N/A   Clear
7:15 PM 74.3 °F 57.4 °F 55% 29.88 in 10.0 mi NW 3.5 mph - N/A   Scattered Clouds
7:35 PM 71.2 °F 57.0 °F 61% 29.88 in 10.0 mi NNE 5.8 mph - N/A   Mostly Cloudy
7:55 PM 64.9 °F 52.7 °F 64% 29.89 in 10.0 mi ENE 5.8 mph - N/A   Overcast
8:15 PM 63.9 °F 52.0 °F 65% 29.90 in 10.0 mi NE 4.6 mph - N/A   Mostly Cloudy
8:35 PM 62.1 °F 50.9 °F 67% 29.90 in 10.0 mi NE 4.6 mph - N/A   Mostly Cloudy
8:55 PM 61.7 °F 50.4 °F 66% 29.90 in 10.0 mi ENE 4.6 mph - N/A   Mostly Cloudy
9:15 PM 61.0 °F 50.7 °F 69% 29.90 in 10.0 mi East 5.8 mph - N/A   Mostly Cloudy
9:34 PM 61.0 °F 51.3 °F 70% 29.90 in 10.0 mi ENE 4.6 mph - N/A   Scattered Clouds
9:55 PM 60.4 °F 50.7 °F 70% 29.90 in 10.0 mi ENE 5.8 mph - N/A   Scattered Clouds
10:15 PM 59.4 °F 50.2 °F 72% 29.91 in 10.0 mi NE 4.6 mph - N/A   Scattered Clouds
10:35 PM 58.3 °F 49.1 °F 71% 29.91 in 10.0 mi ENE 5.8 mph - N/A   Scattered Clouds
10:55 PM 57.2 °F 48.4 °F 72% 29.91 in 10.0 mi East 6.9 mph - N/A   Scattered Clouds
11:15 PM 56.5 °F 48.4 °F 74% 29.91 in 10.0 mi ENE 4.6 mph - N/A   Mostly Cloudy
11:35 PM 56.3 °F 48.6 °F 75% 29.90 in 10.0 mi East 6.9 mph - N/A   Overcast